Location: Beuvrequen
(50.8014°N, 1.6652°E)
Time: 04:09:41
(UTC+00:00)

Cosmos 1269 Rocket - Pass Details

Date: 16 October 2021
Orbit: 773 x 778 km, 74.1° (Epoch: 05 December)

Event Time Altitude Azimuth Distance (km) Brightness Sun altitude
Rises 19:02:51 0° 334° (NNW) 3,271 7.8 -20.3°
Reaches altitude 10° 19:05:15 10° 332° (NNW) 2,339 7.0 -20.7°
Maximum altitude 19:10:32 68° 250° (WSW) 836 4.3 -21.5°
Enters shadow 19:14:28 18° 171° (S) 1,834 5.7 -22.1°
